W5DRO-13 Weather Reports


time (UTC)temp
C
wind
direction
speed
KPH
gust
KPH
rain 1hr
cm
rain 24hr
cm
rain mn
cm
humidity
%
barometer
mb
20260906202541 38 242 0.0 1.6 0.00 0.00 0.00 32 1013.1
20260906202036 39 50 1.6 3.2 0.00 0.00 0.00 31 1013.0
20260906201536 40 20 0.0 1.6 0.00 0.00 0.00 30 1013.3
20260906201036 41 58 0.0 1.6 0.00 0.00 0.00 30 1013.2
20260906200532 41 38 0.0 4.8 0.00 0.00 0.00 30 1013.4
20260906200028 41 152 0.0 9.7 0.00 0.00 0.00 30 1013.4
20260906195523 41 261 0.0 6.4 0.00 0.00 0.00 29 1013.4
20260906195020 40 219 1.6 3.2 0.00 0.00 0.00 31 1013.6
20260906194515 40 38 1.6 3.2 0.00 0.00 0.00 31 1013.8
20260906194011 40 281 3.2 4.8 0.00 0.00 0.00 31 1013.6
20260906193510 41 36 1.6 3.2 0.00 0.00 0.00 30 1013.7
20260906193005 41 124 1.6 1.6 0.00 0.00 0.00 30 1014.0
20260906192501 41 37 1.6 3.2 0.00 0.00 0.00 29 1013.8
20260906191959 41 0 1.6 4.8 0.00 0.00 0.00 30 1013.9
20260906191454 40 261 1.6 3.2 0.00 0.00 0.00 31 1013.9
20260906190954 39 69 3.2 4.8 0.00 0.00 0.00 32 1013.9
20260906190453 41 91 1.6 3.2 0.00 0.00 0.00 30 1014.0
20260906185948 42 37 0.0 4.8 0.00 0.00 0.00 29 1014.0
20260906185447 41 286 1.6 6.4 0.00 0.00 0.00 30 1014.1
20260906184946 41 48 0.0 1.6 0.00 0.00 0.00 30 1014.5
20260906184442 41 272 1.6 4.8 0.00 0.00 0.00 30 1014.4
20260906183937 40 214 3.2 3.2 0.00 0.00 0.00 31 1014.5
20260906183433 40 38 0.0 3.2 0.00 0.00 0.00 32 1014.6
20260906182928 41 333 1.6 4.8 0.00 0.00 0.00 31 1014.6
20260906182424 40 13 0.0 1.6 0.00 0.00 0.00 34 1014.8
20260906181920 39 43 0.0 1.6 0.00 0.00 0.00 33 1014.8
20260906181415 40 339 1.6 6.4 0.00 0.00 0.00 33 1014.9
20260906180911 39 220 0.0 3.2 0.00 0.00 0.00 33 1015.1
20260906180405 38 117 0.0 6.4 0.00 0.00 0.00 35 1015.2
20260906175903 38 67 3.2 4.8 0.00 0.00 0.00 34 1015.3
20260906175358 38 47 3.2 6.4 0.00 0.00 0.00 34 1015.5
20260906174857 39 13 1.6 4.8 0.00 0.00 0.00 35 1015.5
20260906174356 40 259 1.6 3.2 0.00 0.00 0.00 32 1015.5
20260906173851 40 190 1.6 1.6 0.00 0.00 0.00 32 1015.5
20260906173347 40 282 1.6 4.8 0.00 0.00 0.00 33 1015.7
20260906172846 39 193 3.2 9.7 0.00 0.00 0.00 34 1015.9
20260906172342 39 318 4.8 9.7 0.00 0.00 0.00 35 1015.8
20260906171838 40 54 3.2 6.4 0.00 0.00 0.00 33 1015.8
20260906171338 40 244 3.2 3.2 0.00 0.00 0.00 34 1016.0
20260906170833 39 52 0.0 1.6 0.00 0.00 0.00 34 1015.9
20260906170329 39 51 0.0 1.6 0.00 0.00 0.00 35 1016.1
20260906165825 38 48 0.0 1.6 0.00 0.00 0.00 35 1015.9
20260906165324 40 61 0.0 3.2 0.00 0.00 0.00 34 1016.4
20260906164820 41 335 3.2 3.2 0.00 0.00 0.00 32 1016.2
20260906164319 40 45 0.0 1.6 0.00 0.00 0.00 34 1016.2
20260906163815 40 41 0.0 4.8 0.00 0.00 0.00 33 1016.3
20260906163311 40 270 1.6 4.8 0.00 0.00 0.00 35 1016.2
20260906162809 39 287 1.6 3.2 0.00 0.00 0.00 36 1016.4
20260906162308 38 253 3.2 3.2 0.00 0.00 0.00 36 1016.4
20260906161803 37 345 0.0 1.6 0.00 0.00 0.00 38 1016.3
20260906161302 37 283 3.2 4.8 0.00 0.00 0.00 38 1016.4
20260906160801 37 52 1.6 3.2 0.00 0.00 0.00 37 1016.4
20260906160255 37 266 0.0 4.8 0.00 0.00 0.00 39 1016.4
20260906155753 37 276 0.0 4.8 0.00 0.00 0.00 40 1016.5
20260906155248 36 352 0.0 1.6 0.00 0.00 0.00 42 1016.4
20260906154743 36 253 0.0 3.2 0.00 0.00 0.00 42 1016.4
20260906154238 35 275 1.6 1.6 0.00 0.00 0.00 44 1016.4
20260906153737 34 99 0.0 1.6 0.00 0.00 0.00 45 1016.4
20260906153231 34 263 4.8 6.4 0.00 0.00 0.00 46 1016.4
20260906152727 33 37 0.0 4.8 0.00 0.00 0.00 47 1016.4
20260906152221 33 273 3.2 4.8 0.00 0.00 0.00 48 1016.4
20260906151720 33 290 3.2 3.2 0.00 0.00 0.00 48 1016.3
20260906151217 33 274 1.6 3.2 0.00 0.00 0.00 49 1016.3
20260906150712 33 256 1.6 4.8 0.00 0.00 0.00 49 1016.3
20260906150207 32 295 1.6 4.8 0.00 0.00 0.00 50 1016.3
20260906145706 32 276 1.6 3.2 0.00 0.00 0.00 50 1016.2
20260906145206 32 290 0.0 3.2 0.00 0.00 0.00 51 1016.2
20260906144700 32 280 0.0 1.6 0.00 0.00 0.00 53 1016.3
20260906144155 31 229 3.2 4.8 0.00 0.00 0.00 52 1016.3
20260906143654 31 269 3.2 6.4 0.00 0.00 0.00 53 1016.5
20260906143152 31 277 0.0 3.2 0.00 0.00 0.00 55 1016.1
20260906142652 30 285 1.6 3.2 0.00 0.00 0.00 56 1016.0
20260906142147 30 265 0.0 1.6 0.00 0.00 0.00 58 1016.0
20260906141645 29 284 4.8 4.8 0.00 0.00 0.00 58 1016.3
20260906141141 28 266 0.0 3.2 0.00 0.00 0.00 60 1016.2
20260906140639 28 279 0.0 1.6 0.00 0.00 0.00 61 1016.1
20260906140135 28 267 0.0 0.0 0.00 0.00 0.00 62 1016.2
20260906135632 27 266 0.0 1.6 0.00 0.00 0.00 63 1016.0
20260906135128 27 267 0.0 1.6 0.00 0.00 0.00 64 1015.9
20260906134623 26 264 1.6 3.2 0.00 0.00 0.00 65 1015.8
20260906134118 26 251 0.0 0.0 0.00 0.00 0.00 67 1015.9
20260906133614 25 250 0.0 0.0 0.00 0.00 0.00 71 1015.8
20260906133109 25 234 0.0 0.0 0.00 0.00 0.00 73 1015.9
20260906132603 25 234 0.0 0.0 0.00 0.00 0.00 74 1015.7
20260906132059 24 234 0.0 0.0 0.00 0.00 0.00 75 1015.6
20260906131555 24 234 0.0 0.0 0.00 0.00 0.00 75 1015.8
20260906131050 24 234 0.0 0.0 0.00 0.00 0.00 76 1015.6
20260906130549 23 234 0.0 0.0 0.00 0.00 0.00 75 1015.6
20260906130045 23 234 0.0 0.0 0.00 0.00 0.00 75 1015.5
20260906125543 23 234 0.0 0.0 0.00 0.00 0.00 76 1015.6
20260906125042 23 234 0.0 0.0 0.00 0.00 0.00 76 1015.6
20260906124538 23 234 0.0 0.0 0.00 0.00 0.00 77 1015.5
20260906124033 22 234 0.0 0.0 0.00 0.00 0.00 77 1015.6
20260906123532 22 234 0.0 0.0 0.00 0.00 0.00 77 1015.4
20260906123027 22 234 0.0 0.0 0.00 0.00 0.00 77 1015.3
20260906122526 22 234 0.0 0.0 0.00 0.00 0.00 77 1015.3
20260906122023 22 234 0.0 0.0 0.00 0.00 0.00 76 1015.2
20260906121519 22 234 0.0 0.0 0.00 0.00 0.00 76 1015.0
20260906121015 22 234 0.0 0.0 0.00 0.00 0.00 76 1015.2
20260906120510 22 234 0.0 0.0 0.00 0.00 0.00 76 1015.2
20260906120008 22 234 0.0 0.0 0.00 0.00 0.00 76 1015.0
20260906115507 22 234 0.0 0.0 0.00 0.00 0.00 77 1015.0
20260906115002 22 234 0.0 0.0 0.00 0.00 0.00 77 1015.1
20260906114502 22 234 0.0 0.0 0.00 0.00 0.00 77 1015.0
20260906113958 22 234 0.0 0.0 0.00 0.00 0.00 77 1014.9
20260906113456 22 234 0.0 0.0 0.00 0.00 0.00 76 1015.1
20260906112952 22 234 0.0 0.0 0.00 0.00 0.00 76 1014.7
20260906112447 22 234 0.0 0.0 0.00 0.00 0.00 76 1014.8
20260906111943 22 234 0.0 0.0 0.00 0.00 0.00 76 1014.8
20260906111442 22 234 0.0 0.0 0.00 0.00 0.00 76 1014.8
20260906110937 22 234 0.0 0.0 0.00 0.00 0.00 76 1014.7
20260906110433 22 234 0.0 0.0 0.00 0.00 0.00 76 1014.7
20260906105932 22 234 0.0 0.0 0.00 0.00 0.00 76 1014.7
20260906105428 22 234 0.0 0.0 0.00 0.00 0.00 76 1014.6
20260906104924 22 234 0.0 0.0 0.00 0.00 0.00 76 1014.6
20260906104422 22 234 0.0 0.0 0.00 0.00 0.00 76 1014.7
20260906103921 22 234 0.0 0.0 0.00 0.00 0.00 76 1014.6
20260906103420 22 234 0.0 0.0 0.00 0.00 0.00 76 1014.5
20260906102915 22 234 0.0 0.0 0.00 0.00 0.00 76 1013.9
20260906102415 22 234 0.0 0.0 0.00 0.00 0.00 75 1014.3
20260906101909 22 234 0.0 0.0 0.00 0.00 0.00 75 1014.3
20260906101404 22 234 0.0 0.0 0.00 0.00 0.00 74 1014.0
20260906100900 22 234 0.0 0.0 0.00 0.00 0.00 74 1014.5
20260906100359 23 234 0.0 0.0 0.00 0.00 0.00 74 1014.4
20260906095854 23 234 0.0 0.0 0.00 0.00 0.00 73 1014.4
20260906095350 23 234 0.0 0.0 0.00 0.00 0.00 73 1014.3
20260906094849 23 234 0.0 0.0 0.00 0.00 0.00 73 1014.3
20260906094345 23 234 0.0 0.0 0.00 0.00 0.00 73 1014.1
20260906093841 23 234 0.0 0.0 0.00 0.00 0.00 73 1014.3
20260906093337 23 234 0.0 0.0 0.00 0.00 0.00 73 1014.3
20260906092832 23 234 0.0 0.0 0.00 0.00 0.00 74 1014.3
20260906092331 23 234 0.0 0.0 0.00 0.00 0.00 73 1014.4
20260906091827 23 234 0.0 0.0 0.00 0.00 0.00 72 1014.1
20260906091323 23 234 0.0 0.0 0.00 0.00 0.00 72 1014.4
20260906090819 23 234 0.0 0.0 0.00 0.00 0.00 72 1014.3
20260906090318 23 234 0.0 0.0 0.00 0.00 0.00 71 1014.3
20260906085813 23 234 0.0 0.0 0.00 0.00 0.00 71 1014.3
20260906085311 23 234 0.0 0.0 0.00 0.00 0.00 70 1014.3
20260906084807 24 234 0.0 0.0 0.00 0.00 0.00 70 1014.1
20260906084306 24 234 0.0 0.0 0.00 0.00 0.00 69 1014.3
20260906083801 24 234 0.0 0.0 0.00 0.00 0.00 68 1014.1
20260906083257 24 234 0.0 0.0 0.00 0.00 0.00 68 1014.0
20260906082757 24 234 0.0 0.0 0.00 0.00 0.00 68 1014.1
20260906082252 24 234 0.0 0.0 0.00 0.00 0.00 68 1014.0
20260906081748 24 234 0.0 0.0 0.00 0.00 0.00 68 1014.0
20260906081243 24 234 0.0 0.0 0.00 0.00 0.00 68 1014.0
20260906080740 24 234 0.0 0.0 0.00 0.00 0.00 68 1014.1
20260906080236 24 234 0.0 0.0 0.00 0.00 0.00 68 1014.0
20260906075736 24 234 0.0 0.0 0.00 0.00 0.00 68 1014.3
20260906075236 24 234 0.0 0.0 0.00 0.00 0.00 68 1013.9
20260906074731 24 234 0.0 0.0 0.00 0.00 0.00 69 1014.0
20260906074230 24 234 0.0 0.0 0.00 0.00 0.00 69 1014.0
20260906073730 24 234 0.0 0.0 0.00 0.00 0.00 69 1013.9
20260906073225 24 234 0.0 0.0 0.00 0.00 0.00 69 1014.0
20260906072721 24 234 0.0 0.0 0.00 0.00 0.00 69 1014.3
20260906072216 24 234 0.0 0.0 0.00 0.00 0.00 68 1014.1
20260906071712 24 234 0.0 0.0 0.00 0.00 0.00 68 1014.0
20260906071212 24 234 0.0 0.0 0.00 0.00 0.00 68 1014.1
20260906070709 25 234 0.0 0.0 0.00 0.00 0.00 68 1013.9
20260906070204 25 234 0.0 0.0 0.00 0.00 0.00 67 1014.0
20260906065703 25 234 0.0 0.0 0.00 0.00 0.00 67 1014.1
20260906065159 25 234 0.0 0.0 0.00 0.00 0.00 66 1013.8
20260906064654 25 234 0.0 0.0 0.00 0.00 0.00 66 1014.0
20260906064150 25 234 0.0 0.0 0.00 0.00 0.00 66 1013.9
20260906063645 25 234 0.0 0.0 0.00 0.00 0.00 66 1014.1
20260906063140 25 234 0.0 0.0 0.00 0.00 0.00 65 1014.0
20260906062636 25 234 0.0 0.0 0.00 0.00 0.00 65 1014.0
20260906062135 25 234 0.0 0.0 0.00 0.00 0.00 64 1014.0
20260906061632 25 234 0.0 0.0 0.00 0.00 0.00 64 1014.1
20260906061131 25 234 0.0 0.0 0.00 0.00 0.00 63 1014.0
20260906060628 25 234 0.0 0.0 0.00 0.00 0.00 63 1014.1
20260906060125 25 234 0.0 0.0 0.00 0.00 0.00 64 1014.1
20260906055620 25 234 0.0 0.0 0.00 0.00 0.00 63 1013.9
20260906055115 26 234 0.0 0.0 0.00 0.00 0.00 62 1014.0
20260906054610 26 234 0.0 0.0 0.00 0.00 0.00 62 1013.9
20260906054105 26 234 0.0 0.0 0.00 0.00 0.00 62 1013.9
20260906053602 26 234 0.0 0.0 0.00 0.00 0.00 61 1013.7
20260906053057 26 234 0.0 0.0 0.00 0.00 0.00 60 1013.8
20260906052552 26 234 0.0 0.0 0.00 0.00 0.00 59 1013.8
20260906052049 27 234 0.0 0.0 0.00 0.00 0.00 58 1013.8
20260906051544 27 234 0.0 0.0 0.00 0.00 0.00 58 1013.9
20260906051040 27 234 0.0 0.0 0.00 0.00 0.00 56 1013.7
20260906050535 28 234 0.0 0.0 0.00 0.00 0.00 55 1013.7
20260906050030 28 234 0.0 0.0 0.00 0.00 0.00 54 1013.6
20260906045528 28 234 0.0 0.0 0.00 0.00 0.00 53 1013.7
20260906045024 28 234 0.0 0.0 0.00 0.00 0.00 53 1013.7
20260906044520 28 234 0.0 0.0 0.00 0.00 0.00 53 1013.8
20260906044015 28 234 0.0 0.0 0.00 0.00 0.00 52 1014.0
20260906043511 28 234 0.0 0.0 0.00 0.00 0.00 52 1013.7
20260906043007 28 234 0.0 0.0 0.00 0.00 0.00 53 1013.8
20260906042505 28 234 0.0 0.0 0.00 0.00 0.00 54 1013.7
20260906042005 27 276 0.0 0.0 0.00 0.00 0.00 56 1013.7
20260906041502 27 276 0.0 0.0 0.00 0.00 0.00 56 1013.7
20260906041001 28 276 0.0 0.0 0.00 0.00 0.00 56 1013.7
20260906040456 27 276 0.0 0.0 0.00 0.00 0.00 56 1013.6
20260906035951 28 276 0.0 0.0 0.00 0.00 0.00 56 1013.8
20260906035447 28 276 0.0 0.0 0.00 0.00 0.00 55 1013.8
20260906034943 28 276 0.0 0.0 0.00 0.00 0.00 55 1013.8
20260906034443 28 276 0.0 0.0 0.00 0.00 0.00 54 1013.8
20260906033938 29 276 0.0 0.0 0.00 0.00 0.00 53 1013.7
20260906033438 29 276 0.0 0.0 0.00 0.00 0.00 52 1013.8
20260906032934 30 276 0.0 1.6 0.00 0.00 0.00 50 1013.9
20260906032431 30 274 0.0 0.0 0.00 0.00 0.00 49 1013.7
20260906031930 30 274 0.0 0.0 0.00 0.00 0.00 48 1013.7
20260906031426 30 274 0.0 0.0 0.00 0.00 0.00 48 1013.6
20260906030921 30 274 0.0 0.0 0.00 0.00 0.00 48 1013.5
20260906030416 30 274 0.0 0.0 0.00 0.00 0.00 48 1013.5
20260906025910 30 301 0.0 0.0 0.00 0.00 0.00 48 1013.6
20260906025405 30 301 0.0 1.6 0.00 0.00 0.00 48 1013.4
20260906024903 30 359 0.0 0.0 0.00 0.00 0.00 48 1013.6
20260906024403 30 359 0.0 0.0 0.00 0.00 0.00 48 1013.4
20260906023858 30 11 0.0 0.0 0.00 0.00 0.00 48 1013.4
20260906023355 30 34 0.0 0.0 0.00 0.00 0.00 49 1013.3
20260906022854 30 34 0.0 0.0 0.00 0.00 0.00 49 1013.4
20260906022349 30 34 0.0 0.0 0.00 0.00 0.00 50 1013.3
20260906021845 30 34 0.0 0.0 0.00 0.00 0.00 49 1013.0
20260906021344 30 34 0.0 0.0 0.00 0.00 0.00 49 1013.0
20260906020839 30 34 0.0 0.0 0.00 0.00 0.00 49 1013.0
20260906020339 30 34 0.0 0.0 0.00 0.00 0.00 48 1013.0
20260906015833 30 34 0.0 0.0 0.00 0.00 0.00 48 1013.0
20260906015333 31 34 0.0 0.0 0.00 0.00 0.00 48 1012.9
20260906014832 31 34 1.6 1.6 0.00 0.00 0.00 47 1013.0
20260906014327 31 251 0.0 0.0 0.00 0.00 0.00 46 1012.7
20260906013824 31 251 0.0 0.0 0.00 0.00 0.00 46 1012.7
20260906013319 31 252 0.0 0.0 0.00 0.00 0.00 47 1012.9
20260906012815 31 251 0.0 0.0 0.00 0.00 0.00 47 1012.7
20260906012315 32 251 0.0 0.0 0.00 0.00 0.00 45 1012.7
20260906011810 32 251 0.0 0.0 0.00 0.00 0.00 45 1012.5
20260906011310 32 251 0.0 0.0 0.00 0.00 0.00 45 1012.6
20260906010806 32 251 0.0 0.0 0.00 0.00 0.00 44 1012.6
20260906010302 33 252 0.0 0.0 0.00 0.00 0.00 43 1012.4
20260906005756 33 252 0.0 0.0 0.00 0.00 0.00 43 1012.5
20260906005255 33 251 0.0 0.0 0.00 0.00 0.00 41 1012.4
20260906004754 34 251 0.0 0.0 0.00 0.00 0.00 40 1012.3
20260906004250 35 251 0.0 0.0 0.00 0.00 0.00 39 1012.5
20260906003750 35 251 0.0 0.0 0.00 0.00 0.00 38 1012.4
20260906003245 36 251 0.0 0.0 0.00 0.00 0.00 37 1012.3
20260906002741 36 251 0.0 0.0 0.00 0.00 0.00 36 1012.3
20260906002240 36 251 0.0 1.6 0.00 0.00 0.00 36 1012.4
20260906001736 37 251 0.0 0.0 0.00 0.00 0.00 35 1012.2
20260906001231 37 251 0.0 0.0 0.00 0.00 0.00 34 1012.2
20260906000727 37 309 0.0 0.0 0.00 0.00 0.00 34 1012.2
20260906000226 37 309 0.0 0.0 0.00 0.00 0.00 34 1012.1
20260905235721 37 309 0.0 1.6 0.00 0.00 0.00 35 1012.3
20260905235215 37 302 0.0 0.0 0.00 0.00 0.00 35 1012.0
20260905234711 36 304 0.0 0.0 0.00 0.00 0.00 36 1012.2
20260905234206 37 304 0.0 1.6 0.00 0.00 0.00 35 1011.9
20260905233702 37 300 0.0 1.6 0.00 0.00 0.00 35 1011.9
20260905233201 37 188 0.0 0.0 0.00 0.00 0.00 34 1012.0
20260905232656 38 188 0.0 1.6 0.00 0.00 0.00 34 1012.0
20260905232152 38 171 0.0 1.6 0.00 0.00 0.00 32 1012.0
20260905231143 40 132 1.6 3.2 0.00 0.00 0.00 30 1012.0
20260905230639 40 74 1.6 3.2 0.00 0.00 0.00 30 1011.8
20260905230137 40 52 1.6 1.6 0.00 0.00 0.00 30 1011.8
20260905225636 40 153 1.6 4.8 0.00 0.00 0.00 30 1011.8
20260905225131 40 16 1.6 4.8 0.00 0.00 0.00 29 1011.8
20260905224631 40 228 0.0 9.7 0.00 0.00 0.00 29 1012.0
20260905224130 41 51 1.6 6.4 0.00 0.00 0.00 29 1011.8
20260905223627 41 275 1.6 6.4 0.00 0.00 0.00 28 1011.7
20260905223124 41 245 1.6 4.8 0.00 0.00 0.00 29 1011.8
20260905222619 41 235 1.6 3.2 0.00 0.00 0.00 28 1011.8
20260905222113 41 294 0.0 3.2 0.00 0.00 0.00 29 1011.8
20260905221609 41 72 1.6 1.6 0.00 0.00 0.00 28 1011.8
20260905221106 42 264 1.6 3.2 0.00 0.00 0.00 28 1012.0
20260905220601 42 258 0.0 1.6 0.00 0.00 0.00 28 1012.0
20260905220057 41 263 3.2 6.4 0.00 0.00 0.00 28 1012.0
20260905215556 41 75 3.2 3.2 0.00 0.00 0.00 29 1012.1
20260905215052 41 341 1.6 1.6 0.00 0.00 0.00 29 1011.9
20260905214548 41 126 0.0 3.2 0.00 0.00 0.00 29 1012.2
20260905214043 41 223 1.6 3.2 0.00 0.00 0.00 29 1012.3
20260905213538 41 181 1.6 3.2 0.00 0.00 0.00 29 1012.3
20260905213033 41 95 1.6 3.2 0.00 0.00 0.00 30 1012.4
20260905212528 41 79 1.6 6.4 0.00 0.00 0.00 29 1012.4
20260905212027 41 64 3.2 4.8 0.00 0.00 0.00 29 1012.4
20260905211523 41 227 3.2 4.8 0.00 0.00 0.00 29 1012.5
20260905211019 41 120 1.6 3.2 0.00 0.00 0.00 29 1012.7
20260905210514 41 166 0.0 4.8 0.00 0.00 0.00 29 1012.7
20260905210014 42 288 3.2 4.8 0.00 0.00 0.00 28 1012.7
20260905205514 42 68 0.0 1.6 0.00 0.00 0.00 29 1012.8
20260905205013 41 142 1.6 3.2 0.00 0.00 0.00 29 1012.8
20260905204509 41 186 3.2 4.8 0.00 0.00 0.00 30 1013.0
20260905204008 41 343 0.0 1.6 0.00 0.00 0.00 29 1013.0
20260905203503 41 190 1.6 3.2 0.00 0.00 0.00 29 1013.0
20260905202959 41 82 1.6 3.2 0.00 0.00 0.00 29 1013.4